Skip Page Navigation
NASA JPL Caltech
NASA Logo - Jet Propulsion Laboratory + View the NASA Portal
+ Center for Near-Earth Object Studies
JPL Home Earth Solar System Stars & Galaxies Technology
JPL Solar System Dynamics
BODIES ORBITS EPHEMERIDES TOOLS PHYSICAL DATA DISCOVERY FAQ SITE MAP
JPL Small-Body Database Browser
Search: [ help ]  
(2016 AZ8)
Classification: Apollo [NEO, PHA]          SPK-ID: 3739246
Ephemeris | Orbit Diagram | Orbital Elements | Mission Design | Physical Parameters | Close-Approach Data ]

[ show orbit diagram ]
Orbital Elements at Epoch 2459000.5 (2020-May-31.0) TDB
Reference: JPL 54 (heliocentric ecliptic J2000)
 Element Value Uncertainty (1-sigma)   Units 
e .3549044321705718 3.01e-08  
a 1.320554014507202 6.519e-09 au
q .8518835418379546 3.8125e-08 au
i 5.58613962074053 3.4574e-06 deg
node 90.01501425181877 1.329e-05 deg
peri 318.5237430224195 1.5191e-05 deg
M 359.3796425794897 2.8998e-06 deg
tp 2459001.455151280636
(2020-May-31.95515128)
4.4686e-06 TDB
period 554.2844329099449
1.52
4.1044e-06
1.124e-08
d
yr
n .6494860375385817 4.8094e-09 deg/d
Q 1.78922448717645 8.8327e-09 au
  Orbit Determination Parameters
   # obs. used (total)      339  
   # delay obs. used      4  
   # Doppler obs. used      1  
   data-arc span      2441 days (6.68 yr)  
   first obs. used      2012-07-21  
   last obs. used      2019-03-28  
   planetary ephem.      DE431  
   SB-pert. ephem.      SB431-N16  
   condition code      0  
   norm. resid. RMS      .34826  
   source      ORB  
   producer      Otto Matic  
   solution date      2019-Mar-31 07:20:26  

Additional Information
 Earth MOID = .0294816 au 
 Jupiter MOID = 3.59756 au 
 T_jup = 4.878 
[ show covariance matrix ]

Ephemeris | Orbit Diagram | Orbital Elements | Mission Design | Physical Parameters | Close-Approach Data ]

Physical Parameter Table
Parameter Symbol Value Units Sigma Reference Notes
absolute magnitude H 21.1   n/a MPO473423  
diameter diameter 0.215 km 0.052 urn:nasa:pds:neowise_diameters_albedos::2.0[neos] (http://adsabs.harvard.edu/abs/2017AJ....154..168M)  
rotation period rot_per 16.897 h n/a LCDB (Rev. 2019-August); Warner et al., 2009 Result based on less than full coverage, so that the period may be wrong by 30 percent or so.
Published Reference List:
[Warner, B.D.; Stephens, R.D. (2019) Minor Planet Bull. 46, 304-314.]
geometric albedo albedo 0.138   0.091 urn:nasa:pds:neowise_diameters_albedos::2.0[neos] (http://adsabs.harvard.edu/abs/2017AJ....154..168M)  

[ show close-approach data ]
Ephemeris | Orbit Diagram | Orbital Elements | Mission Design | Physical Parameters | Close-Approach Data ]
ABOUT SSD CREDITS/AWARDS PRIVACY/COPYRIGHT GLOSSARY LINKS
FirstGov 2020-Jul-10 15:12 UT
(server date/time)  
NASA Home Page
Site Manager:   Ryan S. Park
Webmaster  Alan B. Chamberlin